User: anonymous   Login
Location: Oshawa
(43.9000°N, 78.8670°W)
Time: 16:17:44
(UTC-04:00)
Language:

CARTOSAT-1 - Orbit

View from above orbital plane
View from above orbital plane
View from above satellite
View from above satellite

Ground track
Ground track

The orbit data is extracted from the following two-line orbital elements,

1 28649U 05017A   15211.34368189  .00000364  00000-0  50839-4 0  9996
2 28649 097.9336 282.5024 0003471 114.5584 245.5990 14.83412142554002
Epoch (UTC): 30 July 2015 08:14:54
Eccentricity: 0.0003471
inclination: 97.9336°
perigee height: 616 km
apogee height: 621 km
right ascension of ascending node: 282.5024°
argument of perigee: 114.5584°
revolutions per day: 14.83412142
mean anomaly at epoch: 245.5990°
orbit number at epoch: 55400

The dashed part of the orbit path shows where the satellite is in the earth's shadow,  

DLR